This demonstration page uses our WeatherBlox Daily Observations layout. Learn more.

Left ArrowRight Arrow

Hourly Observations for March 20, 2015

Temp ( °F °C ) Dew Point ( °F °C ) Humidity (%) Winds ( mph kmh ) Pressure ( in mb ) Visibility ( mi km ) Precip ( " mm )
12:53 am 00:53 Cloudy 42 5.6 32 undefined 68 68 SW 12 19 29.91 1013 10 16 N/A
1:53 am 01:53 Clear 45 7.2 31 -0.6 58 58 WSW 23 37 29.91 1013 10 16 N/A
2:53 am 02:53 Clear 44 6.7 31 -0.6 60 60 WSW 18 30 29.92 1013 10 16 N/A
3:53 am 03:53 Clear 38 3.3 31 -0.6 76 76 W 7 11 29.95 1014 10 16 N/A
4:53 am 04:53 Clear 36 2.2 30 -1.1 79 79 WSW 10 17 29.98 1015 10 16 N/A
5:53 am 05:53 Clear 34 1.1 29 -1.7 82 82 SW 12 19 30.00 1016 10 16 N/A
6:53 am 06:53 Clear 35 1.7 30 -1.1 82 82 SW 12 19 30.02 1017 10 16 N/A
7:53 am 07:53 Sunny 37 2.8 31 -0.6 79 79 SW 13 20 30.05 1018 10 16 N/A
8:53 am 08:53 Sunny 43 6.1 33 0.6 68 68 SW 10 17 30.04 1017 10 16 N/A
9:53 am 09:53 Sunny 48 8.9 33 0.6 56 56 SW 9 15 30.06 1018 10 16 N/A
10:53 am 10:53 Sunny 52 11.1 35 1.7 53 53 SW 12 19 30.06 1018 10 16 N/A
11:53 am 11:53 Sunny 55 12.8 34 1.1 45 45 WSW 7 11 30.05 1018 10 16 N/A
12:53 pm 12:53 Sunny 58 14.4 33 0.6 39 39 WSW 5 7 30.04 1017 10 16 N/A
1:53 pm 13:53 Partly Cloudy 59 15 31 -0.6 35 35 NE 3 6 30.02 1017 10 16 N/A
2:53 pm 14:53 Partly Cloudy 59 15 34 1.1 39 39 VRB 5 7 30.00 1016 10 16 N/A
3:53 pm 15:53 Sunny 63 17.2 34 1.1 34 34 SW 8 13 29.98 1015 10 16 N/A
4:53 pm 16:53 Sunny 61 16.1 33 0.6 35 35 WSW 7 11 29.98 1015 10 16 N/A
5:53 pm 17:53 Sunny 59 15 34 1.1 39 39 SW 6 9 29.98 1015 10 16 N/A
6:53 pm 18:53 Mostly Cloudy 56 13.3 36 2.2 47 47 E 8 13 29.98 1015 10 16 N/A
7:53 pm 19:53 Partly Cloudy 53 11.7 36 2.2 52 52 E 8 13 29.99 1016 10 16 N/A
8:53 pm 20:53 Mostly Clear 52 11.1 35 1.7 53 53 E 10 17 29.96 1015 10 16 N/A
9:53 pm 21:53 Clear 49 9.4 38 3.3 66 66 ENE 16 26 29.97 1015 10 16 N/A
10:53 pm 22:53 Clear 44 6.7 37 2.8 76 76 ENE 14 22 29.97 1015 10 16 N/A
11:53 pm 23:53 Clear 43 6.1 37 2.8 80 80 E 15 24 29.95 1014 10 16 N/A

Powered by AerisWeather